Zurück zum Katalog

KUIPER-00562

AktivKommunikationLEO
NORAD 69270·PAYLOAD·🇺🇸 United States

Gestartet May 29, 2026 von Vandenberg Space Force Base

Loading…

Nächste Überflüge (nächste 24 Stunden)

TLE

AktuellSource: CelesTrak SupGP

Epoche: Sep 14, 2026, 22:51 UTC

1 69270C 26118D   26257.95247685 -.00172590  00000+0 -22610-1 0  2574
2 69270  51.9036 353.6616 0000354  91.6285 297.8676 14.80071035    18

Verfolge KUIPER-00562 in Echtzeit mit AllMySat

Download on the App Store